Total_Precipitation_Accumulation
0.07 0.05 0.04 0.04 0.06 0.07 0.05 0.10 0.21 0.19 0.20 0.30 0.24 0.17 0.14 0.14 0.11 0.21 0.22 0.43 0.46 0.48 0.59 0.82 0.58 0.62 0.65 0.74 0.91 1.08 1.06 1.04 1.08 0.86 0.80 0.66 0.62 0.61 0.66 0.62 0.53 0.64 0.47 0.59 0.47 0.37 0.67 0.60 0.36 0.29 0.31 0.26
0.06 0.03 0.03 0.03 0.03 0.04 0.03 0.05 0.07 0.07 0.07 0.07 0.12 0.12 0.13 0.18 0.11 0.10 0.20 0.17 0.22 0.34 0.43 0.61 0.60 0.68 0.66 0.76 0.72 0.76 0.79 0.93 0.90 0.92 0.85 0.74 0.65 0.64 0.62 0.67 0.73 0.75 0.59 0.45 0.39 0.49 0.45 0.78 0.49 0.37 0.30 0.29
0.07 0.03 0.03 0.04 0.08 0.07 0.07 0.08 0.06 0.02 0.10 0.08 0.01 0.02 0.03 0.05 0.17 0.13 0.05 0.12 0.18 0.18 0.33 0.30 0.27 0.45 0.78 1.11 0.71 0.72 0.67 0.58 0.73 0.79 0.85 0.79 0.76 0.77 0.69 0.66 0.66 0.73 0.72 0.63 0.53 0.57 0.56 0.65 0.64 0.37 0.29 0.32
0.08 0.02 0.01 0.01 0.02 0.04 0.04 0.03 0.03 0.02 0.00 0.00 0.00 0.00 0.01 0.04 0.07 0.14 0.08 0.09 0.09 0.30 0.12 0.26 0.15 0.25 0.40 0.44 0.62 0.72 0.77 0.62 0.63 0.58 0.63 0.71 0.72 0.73 0.77 0.74 0.81 0.92 0.88 0.93 0.69 0.55 0.53 0.63 0.82 0.50 0.31 0.28
0.03 0.03 0.03 0.04 0.02 0.01 0.02 0.03 0.03 0.02 0.09 0.02 0.01 0.01 0.00 0.01 0.03 0.03 0.03 0.04 0.04 0.07 0.05 0.05 0.15 0.15 0.30 0.29 0.32 0.34 0.46 0.64 0.65 0.64 0.55 0.54 0.56 0.61 0.69 0.79 0.90 0.87 0.97 0.96 0.77 0.57 0.58 0.60 0.63 0.54 0.37 0.33
0.00 0.01 0.02 0.03 0.03 0.03 0.02 0.02 0.06 0.07 0.12 0.09 0.09 0.14 0.03 0.01 0.00 0.02 0.03 0.03 0.02 0.04 0.05 0.06 0.04 0.09 0.07 0.13 0.22 0.26 0.46 0.43 0.47 0.52 0.55 0.58 0.59 0.50 0.57 0.68 0.80 0.95 0.91 1.01 0.90 1.01 0.75 0.60 0.63 0.68 0.45 0.39
0.00 0.00 0.00 0.00 0.02 0.02 0.02 0.05 0.02 0.14 0.12 0.16 0.13 0.11 0.10 0.06 0.02 0.01 0.02 0.03 0.03 0.06 0.03 0.01 0.04 0.07 0.07 0.10 0.15 0.22 0.15 0.45 0.38 0.48 0.37 0.47 0.47 0.46 0.51 0.63 0.66 0.98 0.96 0.97 0.70 0.78 0.80 0.76 0.64 0.58 0.51 0.45
0.00 0.00 0.00 0.00 0.01 0.02 0.02 0.02 0.03 0.05 0.07 0.17 0.07 0.18 0.11 0.13 0.11 0.07 0.05 0.03 0.05 0.10 0.06 0.09 0.03 0.07 0.11 0.08 0.06 0.05 0.12 0.17 0.17 0.27 0.37 0.46 0.41 0.38 0.39 0.55 0.64 0.70 1.11 0.93 0.83 0.69 0.75 0.78 0.69 0.59 0.54 0.48
0.00 0.00 0.00 0.00 0.00 0.01 0.01 0.02 0.01 0.02 0.02 0.02 0.05 0.07 0.11 0.09 0.13 0.07 0.07 0.04 0.02 0.02 0.03 0.08 0.05 0.08 0.06 0.06 0.07 0.05 0.15 0.14 0.14 0.19 0.36 0.28 0.38 0.43 0.48 0.43 0.50 0.65 0.93 0.92 0.87 0.80 0.73 0.77 0.73 0.63 0.58 0.53
0.00 0.01 0.00 0.00 0.00 0.00 0.01 0.02 0.01 0.03 0.02 0.02 0.02 0.03 0.03 0.18 0.06 0.09 0.06 0.07 0.03 0.01 0.01 0.03 0.06 0.03 0.09 0.09 0.09 0.24 0.11 0.10 0.13 0.21 0.24 0.34 0.35 0.40 0.37 0.45 0.46 0.50 0.64 0.83 0.92 0.90 0.78 0.76 0.71 0.69 0.60 0.53
0.00 0.00 0.00 0.00 0.00 0.00 0.00 0.01 0.01 0.01 0.02 0.03 0.04 0.18 0.14 0.05 0.14 0.26 0.09 0.11 0.16 0.11 0.08 0.04 0.05 0.05 0.08 0.06 0.04 0.06 0.12 0.06 0.16 0.10 0.11 0.11 0.14 0.27 0.34 0.37 0.37 0.50 0.55 0.60 0.68 0.82 0.95 0.88 0.77 0.70 0.65 0.55
0.00 0.00 0.00 0.00 0.00 0.00 0.00 0.01 0.01 0.00 0.02 0.02 0.04 0.06 0.09 0.07 0.06 0.09 0.06 0.18 0.10 0.11 0.26 0.11 0.20 0.12 0.05 0.01 0.06 0.04 0.08 0.06 0.03 0.12 0.11 0.09 0.06 0.11 0.20 0.30 0.35 0.42 0.46 0.59 0.58 0.62 0.76 0.87 0.80 0.74 0.71 0.62
0.00 0.00 0.00 0.00 0.00 0.00 0.00 0.00 0.00 0.01 0.01 0.03 0.05 0.03 0.05 0.07 0.09 0.15 0.17 0.12 0.06 0.20 0.14 0.05 0.05 0.11 0.09 0.04 0.11 0.19 0.03 0.02 0.01 0.04 0.07 0.04 0.05 0.09 0.13 0.17 0.27 0.35 0.38 0.47 0.60 0.58 0.59 0.70 0.76 0.74 0.75 0.67
0.00 0.00 0.00 0.00 0.00 0.00 0.00 0.00 0.00 0.00 0.00 0.00 0.00 0.04 0.20 0.09 0.17 0.08 0.24 0.23 0.18 0.18 0.31 0.11 0.16 0.21 0.17 0.16 0.10 0.05 0.04 0.04 0.03 0.05 0.05 0.05 0.03 0.06 0.06 0.07 0.11 0.23 0.33 0.35 0.44 0.56 0.59 0.55 0.61 0.70 0.70 0.72
0.00 0.00 0.00 0.00 0.00 0.00 0.00 0.00 0.00 0.00 0.00 0.00 0.00 0.00 0.02 0.08 0.15 0.21 0.15 0.28 0.14 0.20 0.09 0.13 0.08 0.09 0.14 0.21 0.06 0.29 0.05 0.11 0.08 0.05 0.04 0.04 0.04 0.10 0.03 0.03 0.09 0.09 0.12 0.23 0.32 0.42 0.49 0.57 0.54 0.52 0.68 0.68
0.00 0.00 0.00 0.00 0.00 0.00 0.00 0.00 0.00 0.00 0.00 0.00 0.00 0.00 0.00 0.00 0.04 0.05 0.19 0.29 0.18 0.23 0.24 0.26 0.19 0.15 0.13 0.10 0.14 0.11 0.08 0.06 0.03 0.08 0.20 0.17 0.06 0.08 0.04 0.03 0.02 0.07 0.07 0.08 0.15 0.28 0.35 0.44 0.53 0.53 0.55 0.57
0.00 0.00 0.00 0.00 0.00 0.00 0.00 0.00 0.00 0.00 0.00 0.00 0.00 0.00 0.00 0.00 0.00 0.00 0.01 0.03 0.18 0.20 0.22 0.22 0.27 0.25 0.16 0.14 0.20 0.22 0.15 0.22 0.24 0.18 0.06 0.06 0.07 0.13 0.09 0.14 0.06 0.09 0.07 0.06 0.08 0.08 0.17 0.34 0.38 0.45 0.53 0.49
0.00 0.00 0.00 0.00 0.00 0.00 0.00 0.00 0.00 0.00 0.00 0.00 0.00 0.00 0.00 0.00 0.00 0.00 0.00 0.00 0.02 0.08 0.15 0.27 0.22 0.27 0.22 0.18 0.24 0.22 0.12 0.20 0.21 0.24 0.18 0.22 0.11 0.12 0.16 0.12 0.09 0.07 0.07 0.06 0.06 0.08 0.09 0.09 0.27 0.30 0.35 0.47
0.00 0.00 0.00 0.00 0.00 0.00 0.00 0.00 0.00 0.00 0.00 0.00 0.00 0.00 0.00 0.00 0.00 0.00 0.00 0.00 0.00 0.01 0.03 0.08 0.17 0.18 0.24 0.22 0.17 0.17 0.18 0.19 0.16 0.33 0.24 0.37 0.16 0.15 0.13 0.10 0.09 0.12 0.14 0.13 0.07 0.06 0.06 0.07 0.12 0.19 0.28 0.29
0.00 0.00 0.00 0.00 0.00 0.00 0.00 0.00 0.00 0.00 0.00 0.00 0.00 0.00 0.00 0.00 0.00 0.00 0.00 0.00 0.00 0.00 0.01 0.01 0.06 0.08 0.14 0.25 0.18 0.22 0.22 0.25 0.20 0.17 0.28 0.25 0.22 0.22 0.18 0.17 0.14 0.12 0.10 0.09 0.11 0.09 0.06 0.05 0.06 0.10 0.14 0.20
0.00 0.00 0.00 0.00 0.00 0.00 0.00 0.00 0.00 0.00 0.00 0.00 0.00 0.00 0.00 0.00 0.00 0.00 0.00 0.00 0.00 0.00 0.00 0.01 0.01 0.03 0.06 0.09 0.17 0.21 0.19 0.13 0.21 0.19 0.20 0.24 0.33 0.23 0.29 0.24 0.18 0.13 0.12 0.10 0.08 0.08 0.11 0.09 0.07 0.05 0.07 0.12
0.00 0.00 0.00 0.00 0.00 0.00 0.00 0.00 0.00 0.00 0.00 0.00 0.00 0.00 0.00 0.00 0.00 0.00 0.00 0.00 0.00 0.00 0.00 0.00 0.00 0.00 0.02 0.05 0.10 0.14 0.17 0.16 0.12 0.14 0.17 0.19 0.23 0.25 0.21 0.24 0.23 0.24 0.16 0.11 0.09 0.08 0.06 0.06 0.09 0.10 0.05 0.06
0.00 0.00 0.00 0.00 0.00 0.00 0.00 0.00 0.00 0.00 0.00 0.00 0.00 0.00 0.01 0.00 0.00 0.00 0.00 0.00 0.00 0.00 0.00 0.00 0.00 0.00 0.00 0.02 0.07 0.11 0.13 0.16 0.16 0.12 0.10 0.13 0.13 0.19 0.26 0.23 0.18 0.17 0.16 0.16 0.16 0.11 0.08 0.06 0.05 0.05 0.07 0.07
0.00 0.00 0.01 0.02 0.02 0.02 0.02 0.01 0.01 0.01 0.01 0.01 0.01 0.00 0.00 0.00 0.00 0.00 0.00 0.00 0.00 0.00 0.00 0.00 0.00 0.00 0.00 0.01 0.04 0.09 0.13 0.13 0.15 0.17 0.16 0.12 0.10 0.12 0.15 0.22 0.23 0.21 0.22 0.21 0.20 0.19 0.15 0.12 0.08 0.06 0.05 0.05
0.02 0.02 0.03 0.03 0.02 0.02 0.02 0.03 0.02 0.01 0.02 0.02 0.01 0.02 0.03 0.02 0.00 0.00 0.00 0.00 0.00 0.00 0.00 0.00 0.00 0.00 0.01 0.01 0.02 0.07 0.11 0.14 0.16 0.17 0.18 0.18 0.17 0.17 0.15 0.15 0.17 0.21 0.24 0.27 0.30 0.28 0.24 0.19 0.15 0.13 0.10 0.09
0.04 0.05 0.09 0.06 0.08 0.08 0.05 0.04 0.03 0.03 0.01 0.03 0.02 0.03 0.03 0.05 0.05 0.03 0.02 0.01 0.02 0.03 0.01 0.01 0.01 0.02 0.02 0.19 0.01 0.03 0.07 0.10 0.14 0.18 0.21 0.22 0.24 0.23 0.21 0.18 0.12 0.15 0.25 0.50 0.39 0.30 0.25 0.19 0.17 0.17 0.15 0.14
0.02 0.02 0.02 0.03 0.08 0.14 0.12 0.24 0.16 0.11 0.12 0.09 0.11 0.09 0.09 0.02 0.03 0.06 0.06 0.06 0.07 0.07 0.05 0.11 0.08 0.07 0.09 0.06 0.03 0.03 0.05 0.08 0.11 0.13 0.16 0.19 0.21 0.23 0.21 0.19 0.16 0.22 0.23 0.30 0.31 0.25 0.24 0.23 0.18 0.15 0.15 0.15
0.01 0.01 0.01 0.00 0.00 0.00 0.02 0.03 0.06 0.14 0.09 0.16 0.13 0.08 0.10 0.13 0.17 0.13 0.07 0.07 0.04 0.06 0.06 0.05 0.10 0.09 0.04 0.04 0.03 0.05 0.06 0.06 0.09 0.11 0.13 0.15 0.17 0.19 0.19 0.19 0.20 0.16 0.18 0.21 0.25 0.33 0.38 0.41 0.27 0.20 0.12 0.07
0.02 0.02 0.02 0.02 0.01 0.02 0.03 0.02 0.01 0.02 0.04 0.06 0.10 0.08 0.13 0.10 0.09 0.20 0.10 0.05 0.05 0.04 0.12 0.08 0.04 0.07 0.11 0.07 0.05 0.06 0.06 0.06 0.06 0.06 0.10 0.12 0.14 0.16 0.19 0.19 0.14 0.13 0.14 0.15 0.19 0.35 0.32 0.40 0.38 0.32 0.26 0.12
0.01 0.02 0.02 0.02 0.03 0.04 0.04 0.04 0.03 0.03 0.01 0.00 0.00 0.01 0.02 0.03 0.03 0.03 0.04 0.06 0.11 0.03 0.04 0.05 0.07 0.07 0.03 0.04 0.06 0.05 0.05 0.05 0.06 0.08 0.07 0.08 0.11 0.15 0.15 0.17 0.18 0.16 0.11 0.12 0.16 0.24 0.35 0.37 0.28 0.21 0.13 0.11
0.01 0.01 0.02 0.02 0.02 0.01 0.01 0.01 0.01 0.00 0.00 0.00 0.01 0.01 0.00 0.02 0.14 0.04 0.04 0.02 0.07 0.07 0.09 0.08 0.09 0.09 0.07 0.07 0.07 0.06 0.06 0.06 0.06 0.06 0.22 0.24 0.13 0.13 0.14 0.15 0.19 0.18 0.15 0.10 0.12 0.19 0.23 0.22 0.25 0.22 0.15 0.12